sat.trackr.live / text

‹ back to catalog

KHALIFASAT

NORAD 43676 · 2018-084F

PAYLOAD ACTIVE UNKNOWN

§ Identity

Operator
Country
UAE
Launch date
2018-10-29
Launch site
TANSC
Launch vehicle
Mass (kg)
RCS (m²)

External: N2YO · Heavens-Above · Gunter

§ Orbital elements

Epoch: 2026-09-20T03:53:53.306592Z

Period
95.90 min
Inclination
98.0830°
Eccentricity
0.0005808
Mean motion
15.01559291 rev/d
Perigee alt
558.1 km
Apogee alt
566.1 km
Semi-major
6,940.2 km
B*
2.5582e-5
RAAN
89.4442°
Arg perigee
160.1233°
Mean anomaly
200.0217°
Rev number
43,002

§ Raw data

KHALIFASAT1 43676U 18084F   26263.16242253  .00000266  00000+0  25582-4 0  99902 43676  98.0830  89.4442 0005808 160.1233 200.0217 15.01559291430023

JSON: /api/v1/satellites/43676 · /tle

For live sub-satellite position, see the globe view (requires WebGL).

§ Visibility from observer

Set your observer location to see the next 7 days of passes ≥ 10°. The values pass through the URL so the page stays shareable.

No JS? Fill the form by hand. The geolocation button needs JavaScript.